Location: Eppenbrunn
(49.1158°N, 7.5601°E)
Time: 05:11:12
(UTC+00:00)

SL-16 R/B - Pass Details

Date: 09 April 2020
Orbit: 842 x 846 km, 71.0° (Epoch: 01 June)

Event Time Altitude Azimuth Distance (km) Brightness Sun altitude
Rises 23:12:48 0° 328° (NNW) 3,415 6.2 -32.7°
Reaches altitude 10° 23:15:19 10° 323° (NW) 2,476 5.2 -32.7°
Enters shadow 23:18:50 35° 299° (WNW) 1,340 3.4 -32.8°
